Flag for Canada Weather past 2 weeks in Labrador City, Newfoundland and Labrador, Canada

Now
36 °F

Overcast.


Feels Like: 29 °F
Forecast: N/A
Wind: 9 mph from East

Location: Wabush Lake

Current Time: Oct 25, 2014 at 6:15:12 PM

Latest Report: Oct 25, 2014 at 5:00 PM


Visibility: 15 mi

Pressure: 29.69 "Hg

Humidity: 87%

Dew point: 32 °F

Location of Labrador CityLocation

Historic Weather in Labrador City — Graph

°F

Labrador City temperature yesterday

Maximum temperature yesterday: 48 °F (at 3:00 PM)
Minimum temperature yesterday: 19 °F (at 8:00 AM)
Average temperature yesterday: 33 °F

Past Weeks' High & Low Weather Summary

 TemperatureHumidityPressure
High54 °F (Oct 13, 4:00 PM)100% (Oct 11, 1:45 AM)30.54 "Hg (Oct 11, 1:45 AM)
Low19 °F (Oct 22, 2:00 AM)25% (Oct 23, 4:00 PM)29.14 "Hg (Oct 17, 11:56 PM)
Average37 °F83%29.90 "Hg
* Reported Oct 10 5:00 PM — Oct 25 5:00 PM, Labrador City, Weather by CustomWeather, © 2014

Note: Actual official high and low records may vary slightly from our data, if they occured in-between our weather recording intervals... More about our weather records

Advertising

Labrador City weather history for previous 24 hours

 ConditionsComfort  
Time TempWeatherWind HumidityBarometerVisibility
5:00 PM
Oct 25
36 °FOvercast.9 mph87%29.69 "Hg15 mi
4:00 PM37 °FOvercast.8 mph81%29.69 "Hg15 mi
3:00 PM37 °FOvercast.6 mph81%29.70 "Hg15 mi
2:00 PM36 °FOvercast.8 mph81%29.72 "Hg15 mi
1:00 PM34 °FOvercast.10 mph87%29.75 "Hg15 mi
12:00 PM34 °FLow clouds.10 mph87%29.78 "Hg15 mi
11:00 AM34 °FLow clouds.7 mph93%29.80 "Hg15 mi
10:00 AM34 °FLow clouds.8 mph93%29.80 "Hg15 mi
9:00 AM32 °FLow clouds.7 mph93%29.82 "Hg15 mi
8:00 AM30 °FLow clouds.7 mph100%29.83 "Hg10 mi
7:00 AM30 °FLow clouds.9 mph100%29.84 "Hg15 mi
6:00 AM30 °FLow clouds.10 mph100%29.84 "Hg15 mi
5:00 AM27 °FPassing clouds.5 mph100%29.85 "Hg9 mi
4:55 AM27 °FPassing clouds.5 mph100%29.85 "Hg9 mi
4:00 AM27 °FClear.3 mph100%29.85 "Hg9 mi
3:00 AM27 °FClear.7 mph93%29.86 "Hg9 mi
2:00 AM30 °FClear.2 mph86%29.87 "Hg9 mi
1:00 AM27 °FPassing clouds.No wind100%29.88 "Hg9 mi
12:00 AM25 °FClear.2 mph93%29.90 "Hg9 mi
11:00 PM
Oct 24
27 °FClear.No wind93%29.93 "Hg9 mi
10:00 PM28 °FClear.No wind93%29.95 "Hg15 mi
9:00 PM34 °FPassing clouds.2 mph81%29.97 "Hg9 mi
8:00 PM36 °FPassing clouds.2 mph75%29.97 "Hg15 mi
7:00 PM34 °FScattered clouds.2 mph81%29.98 "Hg15 mi
6:00 PM45 °FScattered clouds.2 mph57%29.98 "Hg15 mi
Weather by CustomWeather, © 2014

See weather overviewHow to use our weather pages